Preview of NWS' New Version of Forecast
This preview is not operational and should not be used for support decisions.

Regional Weather Roundup (RWR)

Issued by National Weather Service (NWS)

                            
000
ASUS43 KBIS 260931
RWRND 
NORTH DAKOTA REGIONAL WEATHER ROUNDUP
NATIONAL WEATHER SERVICE EASTERN NORTH DAKOTA/GRAND FORKS ND
400 AM CDT SUN MAY 26 2019

  NOTE: "FAIR" INDICATES FEW OR NO CLOUDS BELOW 12,000 FEET WITH NO
  SIGNIFICANT WEATHER AND/OR OBSTRUCTIONS TO VISIBILITY.

NDZ001>003-009>011-017-261000-
...NORTHWEST NORTH DAKOTA...
  
CITY           SKY/WX    TMP DP  RH WIND       PRES   REMARKS
WILLISTON      FAIR      49  45  86 N7        29.98R                  
MINOT          FAIR      52  50  93 E13G22    30.01R                  
MINOT AFB      CLOUDY    50  50 100 E17       29.99S                  
$$

NDZ018>021-031>035-040>046-261000-
...SOUTHWEST NORTH DAKOTA...
  
CITY           SKY/WX    TMP DP  RH WIND       PRES   REMARKS
BISMARCK       FAIR      50  45  83 E7        30.03S                  
DICKINSON      FAIR      44  39  82 S7        29.98S                  
GARRISON         N/A     47  43  86 SE5       29.99S                  
HETTINGER      FAIR      50  42  74 SE8       30.00F                  
$$

NDZ004>008-012>016-024-026-027-054-261000-
...NORTHEAST NORTH DAKOTA...
  
CITY           SKY/WX    TMP DP  RH WIND       PRES   REMARKS
GRAND FORKS    FAIR      46  42  86 N10       30.05S                  
GRAND FORKS AF FAIR      46  46 100 N9        30.07R                  
DEVILS LAKE    LGT RAIN  50  48  93 NE12      30.07R                  
$$

NDZ022-023-025-028>030-036>039-047>053-261000-
...SOUTHEAST NORTH DAKOTA...
  
CITY           SKY/WX    TMP DP  RH WIND       PRES   REMARKS
JAMESTOWN      FAIR      42  41  96 CALM      30.04R                  
FARGO          FAIR      43  42  97 CALM      30.04F                  
WAHPETON         N/A     43  41  93 CALM      30.06R VSB 1/2          
$$